Regional Weather Roundup
Issued by NWS

Home | Current Version | Previous Version | Text Only | Print | Product List | Glossary On
Versions: 1 2 3 4 5 6 7 8 9 10 11 12 13 14 15 16 17 18 19 20 21 22 23 24 25 26 27 28 29 30 31 32 33 34 35 36 37 38 39 40 41 42 43 44 45 46 47 48 49 50
000
ASUS44 KJAN 020610
RWRMS

MISSISSIPPI HOURLY WEATHER ROUNDUP
NATIONAL WEATHER SERVICE JACKSON MS
1200 AM CST MON MAR 02 2015

NOTE: "FAIR: INDICATES FEW OR NO CLOUDS BELOW 12,000 FEET WITH NO
SIGNIFICANT WEATHER AND/OR OBSTRUCTIONS TO VISIBILITY.

MSZ001>002-007>008-010>013-018>021-025>028-034>036-020700-
NORTHWEST MISSISSIPPI

CITY           SKY/WX    TMP DP  RH WIND       PRES   REMARKS
CLARKSDALE     CLOUDY    39  39 100 N16       30.39R WCI  30
CLEVELAND      CLOUDY    40  40 100 N12       30.36R WCI  33
GREENWOOD        N/A    N/A N/A N/A MISG      30.33S
GREENVILLE     LGT RAIN  42  40  92 N10       30.35S FOG
6HR MIN TEMP:  42; 6HR MAX TEMP:  44; 6HR PCP:  0.03;

OLIVE BRANCH   CLOUDY    36 N/A N/A N8        30.40R WCI  29
OXFORD         CLOUDY    43  43 100 N9        30.36S FOG
TUNICA         CLOUDY    37  36  93 N15       30.40S FOG     WCI  28
$$

MSZ003>006-009-014>017-022>024-029>033-037>039-020700-
NORTHEAST MISSISSIPPI

CITY           SKY/WX    TMP DP  RH WIND       PRES   REMARKS
COLUMBUS AFB   FOG       53  53 100 CALM      30.32S VSB 1/2
6HR MIN TEMP:  53; 6HR MAX TEMP:  54; 6HR PCP: TRACE;

CORINTH        CLOUDY    43  43 100 N10       30.36R
GOLDN TRIANGLE CLOUDY    54  52  94 CALM      30.32S VSB 1/2
STARKVILLE     FOG       52  52 100 CALM      30.33S VSB<1/4
TUPELO         LGT RAIN  51  50  96 N5        30.33S FOG
6HR MIN TEMP:  51; 6HR MAX TEMP:  53; 6HR PCP:  0.22;

$$

MSZ040-058-020700-
CENTRAL MISSISSIPPI

CITY           SKY/WX    TMP DP  RH WIND       PRES   REMARKS
JACKSON INTL   LGT RAIN  57  56  96 CALM      30.30F FOG
6HR MIN TEMP:  57; 6HR MAX TEMP:  61; 6HR PCP:  0.06;

JACKSON HAWKNS CLOUDY    57  56  96 CALM      30.30F FOG
6HR MIN TEMP:  57; 6HR MAX TEMP:  60; 6HR PCP:  0.11;

MERIDIAN KEY   CLOUDY    55  54  96 CALM      30.32S
6HR MIN TEMP:  53; 6HR MAX TEMP:  55; 6HR PCP:  0.01;

MERIDIAN NAS   FOG       55  54  96 CALM      30.32S VSB 1/2
6HR MIN TEMP:  54; 6HR MAX TEMP:  55; 6HR PCP:  0.01;

VICKSBURG      FOG       47  46  97 N7        30.32F VSB 1/2
6HR MIN TEMP:  47; 6HR MAX TEMP:  56; 6HR PCP:  0.10;

$$

MSZ059>079-020700-
SOUTH MISSISSIPPI

CITY           SKY/WX    TMP DP  RH WIND       PRES   REMARKS
BROOKHAVEN       N/A     57  57 100 CALM      30.31S
HATTIESBURG    CLOUDY    60  59  96 CALM      30.29S
6HR MIN TEMP:  58; 6HR MAX TEMP:  61; 6HR PCP:  1.38;

MCCOMB         LGT RAIN  61  60  97 E3        30.29F
6HR MIN TEMP:  61; 6HR MAX TEMP:  63; 6HR PCP:  1.63;

NATCHEZ        CLOUDY    54  52  94 N6        30.30F VSB 1/2
6HR MIN TEMP:  54; 6HR MAX TEMP:  63; 6HR PCP:  0.09;

PINE BELT      CLOUDY    57  55  94 CALM      30.30S
6HR MIN TEMP:  55; 6HR MAX TEMP:  57;

$$

MSZ080>082-020700-
COASTAL MISSISSIPPI

CITY           SKY/WX    TMP DP  RH WIND       PRES   REMARKS
BILOXI         LGT RAIN  59  59 100 E8        30.32F
6HR MIN TEMP:  59; 6HR MAX TEMP:  61; 6HR PCP:  0.01;

PASCAGOULA     CLOUDY    57  56  96 NE6       30.34F FOG
6HR MIN TEMP:  57; 6HR MAX TEMP:  59; 6HR PCP: TRACE;

GULFPORT       LGT RAIN  59  57  93 E10       30.32F FOG
6HR MIN TEMP:  59; 6HR MAX TEMP:  61; 6HR PCP:  0.08;

$$



USA.gov is the U.S. government's official web portal to all federal, state and local government web resources and services.